TimeEST,TemperatureF,Dew PointF,Humidity,Sea Level PressureIn,VisibilityMPH,Wind Direction,Wind SpeedMPH,Gust SpeedMPH,PrecipitationIn,Events,Conditions,WindDirDegrees,DateUTC
12:53 AM,23.0,15.1,72,30.35,10.0,WNW,3.5,-,N/A,,Clear,300,2013-02-22 05:53:00
1:53 AM,24.1,16.0,71,30.35,10.0,Calm,Calm,-,N/A,,Clear,0,2013-02-22 06:53:00
2:53 AM,25.0,16.0,69,30.36,10.0,Calm,Calm,-,N/A,,Clear,0,2013-02-22 07:53:00
3:53 AM,25.0,16.0,69,30.36,10.0,Calm,Calm,-,N/A,,Clear,0,2013-02-22 08:53:00
4:53 AM,25.0,17.1,72,30.38,10.0,Calm,Calm,-,N/A,,Clear,0,2013-02-22 09:53:00
5:53 AM,25.0,17.1,72,30.39,10.0,Calm,Calm,-,N/A,,Clear,0,2013-02-22 10:53:00
6:53 AM,25.0,16.0,69,30.38,10.0,Calm,Calm,-,N/A,,Clear,0,2013-02-22 11:53:00
7:53 AM,26.1,17.1,69,30.40,10.0,Calm,Calm,-,N/A,,Clear,0,2013-02-22 12:53:00
8:53 AM,26.1,17.1,69,30.38,10.0,East,3.5,-,N/A,,Clear,90,2013-02-22 13:53:00
9:53 AM,28.0,17.1,63,30.34,10.0,ESE,8.1,-,N/A,,Mostly Cloudy,110,2013-02-22 14:53:00
10:53 AM,30.9,18.0,59,30.35,10.0,ESE,8.1,-,N/A,,Overcast,120,2013-02-22 15:53:00
11:53 AM,32.0,19.0,59,30.34,10.0,SE,9.2,-,N/A,,Overcast,130,2013-02-22 16:53:00
12:53 PM,32.0,19.0,59,30.32,10.0,SSE,8.1,-,N/A,,Overcast,150,2013-02-22 17:53:00
1:53 PM,33.1,19.0,56,30.30,10.0,SSE,4.6,-,N/A,,Overcast,160,2013-02-22 18:53:00
2:53 PM,32.0,19.9,61,30.28,10.0,SSE,6.9,-,0.00,Rain,Light Rain,160,2013-02-22 19:53:00
3:53 PM,30.9,21.9,69,30.29,9.0,South,5.8,-,0.00,,Overcast,170,2013-02-22 20:53:00
4:53 PM,30.9,23.0,72,30.27,10.0,SSE,11.5,-,0.00,,Overcast,150,2013-02-22 21:53:00
5:53 PM,30.9,23.0,72,30.28,10.0,SSE,5.8,-,N/A,,Overcast,150,2013-02-22 22:53:00
6:53 PM,30.9,23.0,72,30.28,10.0,SE,8.1,-,N/A,,Overcast,140,2013-02-22 23:53:00
7:53 PM,30.9,23.0,72,30.26,10.0,ESE,8.1,-,N/A,,Overcast,120,2013-02-23 00:53:00
8:12 PM,30.2,24.8,80,30.24,10.0,ESE,3.5,-,N/A,,Overcast,120,2013-02-23 01:12:00
8:53 PM,30.9,24.1,76,30.26,10.0,SE,5.8,-,N/A,,Overcast,130,2013-02-23 01:53:00
9:53 PM,30.9,24.1,76,30.25,10.0,SE,5.8,-,N/A,,Overcast,140,2013-02-23 02:53:00
10:53 PM,30.9,25.0,79,30.24,10.0,SE,3.5,-,N/A,,Overcast,130,2013-02-23 03:53:00
11:53 PM,30.9,26.1,82,30.24,10.0,SE,3.5,-,N/A,,Overcast,130,2013-02-23 04:53:00